Daviess Cnty AP, Washington,, IN

6:08 AM EST on December 06, 2019 (GMT -0500)
Daviess County

Weather History for KDCY - November, 2019

Change the Weather History Date:

Monday, November 11, 2019

  Actual Average (KLWV) Record (KLWV)
Temperature  
Mean Temperature 33 °F 48 °F  
Max Temperature 44 °F 58 °F 78 °F (2010)
Min Temperature 21 °F 39 °F 20 °F (2019)
Degree Days  
Heating Degree Days 32 17  
Month to date heating degree days 162  
Since 1 July heating degree days 459  
Cooling Degree Days 0 0  
Month to date cooling degree days 0  
Year to date cooling degree days 1386  
Moisture  
Dew Point 35 °F    
Average Humidity 96    
Maximum Humidity 100    
Minimum Humidity 80    
Precipitation  
Precipitation 0.00 in 0.13 in 0.97 in (2004)
Month to date precipitation 1.30  
Year to date precipitation 37.82  
Sea Level Pressure  
Sea Level Pressure 30.11 in    
Wind  
Wind Speed 6 mph (NNW)    
Max Wind Speed 22 mph    
Max Gust Speed 31 mph    
Visibility 5 miles    
Events Rain , Snow    
T = Trace of Precipitation, MM = Missing Value Source: NWS Daily Summary

Daily Weather History Graph

Daily Weather History Graph

Search for Another Location

Airport or City:

Astronomy

Nov. 11, 2019 Rise Set
Actual Time 7:26 AM EST 5:38 PM EST
Civil Twilight 6:57 AM EST 6:06 PM EST
Nautical Twilight 6:26 AM EST 6:38 PM EST
Astronomical Twilight 5:54 AM EST 7:09 PM EST
Moon 5:32 PM EST (11/11) 6:18 AM EST (11/11)
Length of Visible Light 11h 08m
Length of Day
10h 12m
Waxing Gibbous, 99% of the Moon is Illuminated
Nov 11
Waxing Gibbous
Nov 12
Full
Nov 19
Last Quarter
Nov 26
New
Dec 4
First Quarter

Hourly Weather History & Observations

Time (EST) Temp. Windchill Dew Point Humidity Pressure Visibility Wind Dir Wind Speed Gust Speed Precip Events Conditions
12:15 AM 39.0 °F - 38.7 °F 99% 30.01 in 10.0 mi Calm Calm - N/A   Clear
12:35 AM 38.7 °F - 38.5 °F 99% 30.01 in 7.0 mi Calm Calm - N/A   Clear
12:55 AM 40.1 °F - 40.1 °F 100% 30.02 in 7.0 mi Calm Calm - N/A   Clear
1:15 AM 38.8 °F - 38.7 °F 99% 30.02 in 7.0 mi Calm Calm - N/A   Scattered Clouds
1:35 AM 40.8 °F - 40.5 °F 99% 30.02 in 7.0 mi Calm Calm - N/A   Overcast
1:55 AM 41.7 °F - 41.4 °F 99% 30.02 in 7.0 mi Calm Calm - N/A   Overcast
2:15 AM 42.4 °F - 42.3 °F 99% 30.02 in 7.0 mi Calm Calm - N/A   Overcast
2:35 AM 43.0 °F - 42.8 °F 99% 30.02 in 7.0 mi Calm Calm - N/A   Overcast
2:55 AM 43.2 °F - 43.0 °F 99% 30.02 in 5.0 mi Calm Calm - N/A   Overcast
3:15 AM 43.3 °F 40.7 °F 43.2 °F 99% 30.01 in 7.0 mi North 4.6 mph - N/A   Overcast
3:35 AM 42.1 °F - 41.9 °F 99% 30.01 in 5.0 mi Calm Calm - N/A   Mostly Cloudy
3:55 AM 42.6 °F 39.9 °F 42.3 °F 99% 30.01 in 5.0 mi NNW 4.6 mph - N/A   Mostly Cloudy
4:15 AM 41.4 °F 39.4 °F 41.2 °F 99% 30.00 in 7.0 mi North 3.5 mph - N/A   Scattered Clouds
4:35 AM 40.3 °F - 40.1 °F 99% 30.00 in 7.0 mi Calm Calm - N/A   Clear
4:55 AM 40.6 °F - 40.5 °F 99% 30.00 in 5.0 mi Calm Calm - N/A   Clear
5:15 AM 40.3 °F - 40.3 °F 100% 30.00 in 7.0 mi Calm Calm - N/A   Mostly Cloudy
5:35 AM 41.2 °F - 41.0 °F 99% 29.99 in 7.0 mi Calm Calm - N/A   Overcast
5:55 AM 41.9 °F - 41.7 °F 99% 29.98 in 7.0 mi Calm Calm - N/A   Overcast
6:15 AM 41.5 °F 39.6 °F 41.4 °F 99% 29.99 in 7.0 mi NW 3.5 mph - N/A   Mostly Cloudy
6:35 AM 40.5 °F 37.3 °F 40.3 °F 99% 30.00 in 5.0 mi NW 4.6 mph - N/A   Mostly Cloudy
6:55 AM 41.4 °F 37.6 °F 41.2 °F 99% 30.00 in 7.0 mi NW 5.8 mph - N/A   Overcast
7:15 AM 41.9 °F 38.2 °F 41.5 °F 99% 30.00 in 7.0 mi NNW 5.8 mph - N/A   Overcast
7:35 AM 42.4 °F - 42.1 °F 99% 30.01 in 7.0 mi Calm Calm - N/A   Overcast
8:15 AM 43.7 °F 41.1 °F 41.7 °F 93% 30.00 in 7.0 mi NNW 4.6 mph - N/A   Overcast
8:35 AM 43.9 °F 41.3 °F 42.1 °F 93% 30.00 in 7.0 mi NW 4.6 mph - N/A   Overcast
8:55 AM 44.1 °F 40.8 °F 41.9 °F 92% 30.01 in 7.0 mi North 5.8 mph - N/A   Overcast
9:15 AM 44.2 °F 39.7 °F 41.4 °F 90% 30.01 in 7.0 mi NNW 8.1 mph - N/A   Overcast
9:35 AM 44.1 °F 41.5 °F 41.0 °F 89% 30.00 in 10.0 mi NNW 4.6 mph - N/A   Overcast
9:55 AM 44.2 °F 39.7 °F 41.2 °F 89% 30.01 in 10.0 mi NNW 8.1 mph - N/A   Overcast
10:15 AM 43.9 °F 39.9 °F 40.5 °F 88% 30.01 in 10.0 mi NNW 6.9 mph - N/A   Overcast
10:55 AM 43.9 °F 38.8 °F 40.3 °F 87% 30.03 in 10.0 mi NNW 9.2 mph - N/A   Overcast
11:15 AM 43.2 °F 37.0 °F 41.0 °F 92% 30.04 in 4.0 mi WNW 11.5 mph - N/A   Light Drizzle
11:55 AM 41.5 °F 34.6 °F 41.5 °F 100% 30.04 in 1.2 mi NNW 12.7 mph 18.4 mph N/A   Drizzle
12:15 PM 41.2 °F 34.1 °F 41.0 °F 99% 30.04 in 1.8 mi NNW 12.7 mph - N/A   Light Drizzle
12:35 PM 40.6 °F 33.4 °F 40.5 °F 99% 30.04 in 4.0 mi NNW 12.7 mph - N/A   Overcast
12:55 PM 40.3 °F 33.4 °F 40.1 °F 99% 30.04 in 3.0 mi NNW 11.5 mph - N/A   Overcast
1:15 PM 39.4 °F 31.1 °F 39.2 °F 99% 30.04 in 4.0 mi NNW 15.0 mph - N/A   Drizzle
1:35 PM 39.2 °F 30.5 °F 39.0 °F 99% 30.04 in 2.5 mi NNW 16.1 mph - N/A Rain Rain
1:55 PM 38.3 °F 29.0 °F 37.9 °F 99% 30.05 in 2.0 mi NNW 17.3 mph - N/A Rain Rain
2:15 PM 37.0 °F 27.4 °F 36.9 °F 99% 30.06 in 1.8 mi NNW 17.3 mph 20.7 mph N/A Rain Light Rain
2:35 PM 36.7 °F 28.0 °F 36.5 °F 99% 30.08 in 2.5 mi NNW 13.8 mph 18.4 mph N/A   Drizzle
2:55 PM 35.8 °F 27.8 °F 35.6 °F 99% 30.09 in 2.0 mi NNW 11.5 mph 21.9 mph N/A Rain Rain
3:15 PM 34.7 °F 24.7 °F 34.5 °F 99% 30.10 in 4.0 mi NNW 16.1 mph - N/A Rain Light Rain
3:35 PM 33.1 °F 23.9 °F 32.9 °F 99% 30.12 in 2.0 mi NNW 12.7 mph 19.6 mph N/A   Overcast
3:55 PM 32.4 °F 22.1 °F 32.2 °F 99% 30.15 in 1.5 mi NNW 15.0 mph 20.7 mph N/A Snow Light Snow
4:15 PM 32.0 °F 22.1 °F 32.0 °F 100% 30.15 in 1.0 mi North 13.8 mph 24.2 mph N/A Snow Light Snow
4:35 PM 32.0 °F 21.2 °F 32.0 °F 100% 30.14 in 1.5 mi North 16.1 mph 25.3 mph N/A Snow Light Snow
4:55 PM 31.6 °F 23.1 °F 31.5 °F 99% 30.15 in 0.8 mi NNW 10.4 mph - N/A Snow Light Snow
5:15 PM 30.9 °F 22.2 °F 30.7 °F 99% 30.16 in 1.0 mi NW 10.4 mph - N/A Snow Light Snow
5:35 PM 30.4 °F 20.0 °F 30.2 °F 99% 30.16 in 0.8 mi NNW 13.8 mph - N/A Snow Light Snow
5:55 PM 30.2 °F 19.3 °F 30.0 °F 99% 30.17 in 2.5 mi NW 15.0 mph 18.4 mph N/A Snow Light Snow
6:15 PM 29.5 °F 16.8 °F 29.3 °F 99% 30.20 in 1.5 mi NW 19.6 mph - N/A Snow Light Snow
6:35 PM 28.4 °F 15.4 °F 28.4 °F 100% 30.21 in 1.8 mi NW 19.6 mph 24.2 mph N/A Snow Light Snow
6:55 PM 27.3 °F 14.4 °F 27.1 °F 99% 30.23 in 1.0 mi NW 18.4 mph 23.0 mph N/A Snow Snow
7:15 PM 26.2 °F 14.2 °F 26.1 °F 99% 30.23 in 1.2 mi NNW 15.0 mph 26.5 mph N/A Snow Light Snow
7:35 PM 25.3 °F 11.4 °F 24.8 °F 98% 30.24 in 1.2 mi NNW 19.6 mph - N/A Snow Light Snow
7:55 PM 24.6 °F 11.7 °F 24.3 °F 99% 30.25 in 0.8 mi NW 16.1 mph 21.9 mph N/A Snow Snow
8:15 PM 24.1 °F 9.8 °F 23.9 °F 99% 30.27 in 1.0 mi NNW 19.6 mph 23.0 mph N/A Snow Light Snow
8:35 PM 23.9 °F 10.3 °F 23.0 °F 96% 30.28 in 1.8 mi NNW 17.3 mph - N/A Snow Light Snow
8:55 PM 23.9 °F 10.8 °F 22.6 °F 95% 30.29 in 4.0 mi NNW 16.1 mph 20.7 mph N/A Snow Light Snow
9:15 PM 23.5 °F 10.3 °F 22.1 °F 94% 30.30 in 1.5 mi NNW 16.1 mph 25.3 mph N/A Snow Light Snow
9:35 PM 23.0 °F 8.7 °F 21.6 °F 94% 30.31 in 2.0 mi NNW 18.4 mph 24.2 mph N/A Snow Light Snow
9:55 PM 23.0 °F 8.3 °F 19.4 °F 86% 30.32 in 7.0 mi NNW 19.6 mph 24.2 mph N/A   Overcast
10:15 PM 23.0 °F 7.6 °F 18.9 °F 84% 30.33 in 10.0 mi NNW 21.9 mph 31.1 mph N/A   Overcast
10:35 PM 23.0 °F 8.3 °F 18.3 °F 82% 30.33 in 10.0 mi NNW 19.6 mph 26.5 mph N/A   Overcast
10:55 PM 22.8 °F 8.5 °F 18.3 °F 83% 30.34 in 10.0 mi NNW 18.4 mph 23.0 mph N/A   Overcast
11:15 PM 22.6 °F 9.6 °F 17.6 °F 81% 30.35 in 10.0 mi NNW 15.0 mph 26.5 mph N/A   Overcast
11:35 PM 22.1 °F 7.2 °F 17.4 °F 82% 30.35 in 10.0 mi NNW 19.6 mph 26.5 mph N/A   Overcast
11:55 PM 21.9 °F 6.5 °F 16.7 °F 80% 30.36 in 7.0 mi NNW 20.7 mph - N/A Snow Light Snow